Window Rock, AZ

9:19 PM MST on February 24, 2018 (GMT -0700)
Window Rock

Weather History for KRQE - March, 2013

Change the Weather History Date:

Friday, March 15, 2013

  Actual Average Record
Temperature  
Mean Temperature 48 °F -  
Max Temperature 73 °F 51 °F 73 °F (2013)
Min Temperature 24 °F 23 °F 7 °F (2005)
Degree Days  
Heating Degree Days 17    
Moisture  
Dew Point 17 °F    
Average Humidity 37    
Maximum Humidity 77    
Minimum Humidity 8    
Precipitation  
Precipitation 0.00 in - - ()
Sea Level Pressure  
Sea Level Pressure 30.05 in    
Wind  
Wind Speed 3 mph (WSW)    
Max Wind Speed 17 mph    
Max Gust Speed 25 mph    
Visibility 10 miles    
Events      
Averages and records for this station are not official NWS values.
T = Trace of Precipitation, MM = Missing Value Source: NWS Daily Summary

Daily Weather History Graph

Daily Weather History Graph

Search for Another Location

Airport or City:

Trip Planner

Search our weather history database for the weather conditions in past years. The results will help you decide how hot, cold, wet, or windy it might be!

Date:

Astronomy

Mar. 15, 2013 Rise Set
Actual Time 7:26 AM MDT 7:24 PM MDT
Civil Twilight 7:01 AM MDT 7:49 PM MDT
Nautical Twilight 6:31 AM MDT 8:19 PM MDT
Astronomical Twilight 6:01 AM MDT 8:49 PM MDT
Moon 9:27 AM MDT (3/15) 11:31 PM MDT (3/15)
Length of Visible Light 12h 48m
Length of Day
11h 57m
Waxing Crescent, 16% of the Moon is Illuminated
Mar 15
Waxing Crescent
Mar 19
First Quarter
Mar 27
Full
Apr 2
Last Quarter
Apr 10
New

Hourly Weather History & Observations

Time (MDT) Temp. Windchill Dew Point Humidity Pressure Visibility Wind Dir Wind Speed Gust Speed Precip Events Conditions
12:53 AM 32.0 °F - 19.0 °F 59% 30.18 in 10.0 mi Calm Calm - N/A   Clear
1:53 AM 30.9 °F - 19.0 °F 61% 30.17 in 10.0 mi Calm Calm - N/A   Clear
2:53 AM 28.9 °F - 19.0 °F 67% 30.17 in 10.0 mi Calm Calm - N/A   Clear
3:53 AM 28.9 °F - 19.9 °F 69% 30.14 in 10.0 mi Calm Calm - N/A   Clear
4:53 AM 28.0 °F - 19.9 °F 72% 30.12 in 10.0 mi Calm Calm - N/A   Clear
5:53 AM 26.1 °F - 19.0 °F 75% 30.13 in 10.0 mi Calm Calm - N/A   Clear
7:53 AM 24.1 °F - 18.0 °F 77% 30.18 in 10.0 mi Calm Calm - N/A   Clear
8:53 AM 32.0 °F - 21.9 °F 66% 30.18 in 10.0 mi Calm Calm - N/A   Clear
9:53 AM 45.0 °F - 21.0 °F 39% 30.15 in 10.0 mi Calm Calm - N/A   Clear
10:53 AM 55.0 °F - 21.0 °F 27% 30.10 in 10.0 mi Calm Calm - N/A   Clear
11:53 AM 66.0 °F - 19.9 °F 17% 30.05 in 10.0 mi South 8.1 mph - N/A   Clear
12:53 PM 71.1 °F - 10.9 °F 10% 30.01 in 10.0 mi WSW 16.1 mph 20.7 mph N/A   Clear
1:53 PM 71.1 °F - 14.0 °F 11% 29.99 in 10.0 mi SW 17.3 mph - N/A   Clear
2:53 PM 72.0 °F - 10.9 °F 10% 29.97 in 10.0 mi West 16.1 mph 24.2 mph N/A   Clear
3:53 PM 72.0 °F - 8.1 °F 8% 29.94 in 10.0 mi West 15.0 mph - N/A   Clear
4:53 PM 72.0 °F - 10.0 °F 9% 29.93 in 10.0 mi WNW 15.0 mph 21.9 mph N/A   Clear
5:53 PM 68.0 °F - 8.1 °F 10% 29.95 in 10.0 mi West 16.1 mph 25.3 mph N/A   Clear
6:53 PM 64.0 °F - 12.9 °F 14% 29.96 in 10.0 mi West 8.1 mph - N/A   Clear
7:53 PM 59.0 °F - 16.0 °F 19% 29.99 in 10.0 mi Calm Calm - N/A   Clear
8:53 PM 48.0 °F - 17.1 °F 29% 30.00 in 10.0 mi SW 4.6 mph - N/A   Clear
9:53 PM 48.9 °F - 19.0 °F 31% 29.94 in 10.0 mi Calm Calm - N/A   Clear
10:53 PM 43.0 °F - 19.0 °F 38% 29.93 in 10.0 mi Calm Calm - N/A   Clear
11:53 PM 46.0 °F 41.9 °F 19.9 °F 35% 29.86 in 10.0 mi South 8.1 mph - N/A   Clear